Erie, PA

2:10 AM EDT on August 18, 2017 (GMT -0400)
Erie International

Weather History for KERI - October, 2011

Change the Weather History Date:

Tuesday, October 4, 2011

  Actual Average Record
Temperature  
Mean Temperature 57 °F 57 °F  
Max Temperature 63 °F 65 °F 89 °F (1951)
Min Temperature 50 °F 49 °F 30 °F (1974)
Degree Days  
Heating Degree Days 8 9  
Month to date heating degree days 49 33  
Since 1 July heating degree days 122 157  
Cooling Degree Days 0 1  
Month to date cooling degree days 0 4  
Year to date cooling degree days 825 633  
Growing Degree Days 7 (Base 50)    
Moisture  
Dew Point 53 °F    
Average Humidity 84    
Maximum Humidity 100    
Minimum Humidity 67    
Precipitation  
Precipitation 0.10 in 0.15 in 1.67 in (1980)
Month to date precipitation 1.48 0.59  
Year to date precipitation 42.69 31.03  
Snow  
Snow 0.00 in 0.00 in - ()
Month to date snowfall 0.0 0.0  
Since 1 July snowfall 0.0 0.0  
Since 1 September snowfall 0.0 0.0  
Snow Depth 0.00 in    
Sea Level Pressure  
Sea Level Pressure 30.17 in    
Wind  
Wind Speed 6 mph (NW)    
Max Wind Speed 13 mph    
Max Gust Speed 18 mph    
Visibility 8 miles    
Events Rain    
T = Trace of Precipitation, MM = Missing Value Source: NWS Daily Summary

Daily Weather History Graph

Daily Weather History Graph

Search for Another Location

Airport or City:

Trip Planner

Search our weather history database for the weather conditions in past years. The results will help you decide how hot, cold, wet, or windy it might be!

Date:

Astronomy

Oct. 04, 2011 Rise Set
Actual Time 7:20 AM EDT 6:57 PM EDT
Civil Twilight 6:52 AM EDT 7:25 PM EDT
Nautical Twilight 6:20 AM EDT 7:57 PM EDT
Astronomical Twilight 5:47 AM EDT 8:30 PM EDT
Moon 3:04 PM EDT (10/4) No Moon Set
Length of Visible Light 12h 32m
Length of Day
11h 36m
First Quarter, 56% of the Moon is Illuminated
Oct 4
First Quarter
Oct 11
Full
Oct 19
Last Quarter
Oct 26
New
Nov 2
First Quarter

Hourly Weather History & Observations

Time (EDT) Temp. Dew Point Humidity Pressure Visibility Wind Dir Wind Speed Gust Speed Precip Events Conditions
12:28 AM 55.4 °F 53.6 °F 94% 30.14 in 10.0 mi Calm Calm - 0.00 in Rain Light Rain
12:51 AM 55.0 °F 53.1 °F 93% 30.14 in 5.0 mi WSW 4.6 mph - 0.01 in Rain Light Rain
1:30 AM 55.4 °F 53.6 °F 94% 30.14 in 8.0 mi North 5.8 mph - 0.01 in Rain Light Rain
1:46 AM 55.4 °F 53.6 °F 94% 30.14 in 4.0 mi North 5.8 mph - 0.02 in Rain Light Rain
1:51 AM 55.0 °F 52.0 °F 89% 30.14 in 3.0 mi North 4.6 mph - 0.02 in Rain Light Rain
2:01 AM 55.4 °F 53.6 °F 94% 30.14 in 4.0 mi North 4.6 mph - 0.02 in Rain Light Rain
2:21 AM 55.4 °F 53.6 °F 94% 30.15 in 2.0 mi NNW 6.9 mph - 0.04 in Rain Rain
2:30 AM 53.6 °F 51.8 °F 94% 30.15 in 3.0 mi NNW 6.9 mph - 0.07 in Rain Light Rain
2:51 AM 54.0 °F 53.1 °F 97% 30.14 in 8.0 mi NNW 3.5 mph - 0.08 in Rain Light Rain
3:00 AM 55.4 °F 53.6 °F 94% 30.13 in 8.0 mi WNW 3.5 mph - 0.00 in Rain Light Rain
3:09 AM 53.6 °F 53.6 °F 100% 30.12 in 10.0 mi Calm Calm - 0.00 in   Overcast
3:16 AM 53.6 °F 53.6 °F 100% 30.12 in 10.0 mi WSW 4.6 mph - 0.00 in   Overcast
3:25 AM 53.6 °F 53.6 °F 100% 30.12 in 10.0 mi Calm Calm - 0.00 in Rain Light Rain
3:49 AM 55.4 °F 53.6 °F 94% 30.13 in 10.0 mi NW 4.6 mph - 0.00 in Rain Light Rain
3:51 AM 55.0 °F 53.1 °F 93% 30.13 in 10.0 mi WNW 3.5 mph - 0.00 in Rain Light Rain
4:01 AM 55.4 °F 53.6 °F 94% 30.13 in 10.0 mi Calm Calm - 0.00 in   Overcast
4:51 AM 55.0 °F 53.1 °F 93% 30.13 in 8.0 mi WNW 4.6 mph - 0.00 in   Overcast
4:58 AM 55.4 °F 51.8 °F 88% 30.13 in 7.0 mi WNW 5.8 mph - N/A   Overcast
5:05 AM 55.4 °F 53.6 °F 94% 30.13 in 5.0 mi WNW 4.6 mph - 0.00 in Rain Light Rain
5:12 AM 55.4 °F 53.6 °F 94% 30.13 in 4.0 mi NW 5.8 mph - 0.00 in   Overcast
5:20 AM 55.4 °F 53.6 °F 94% 30.13 in 5.0 mi WNW 5.8 mph - 0.00 in   Overcast
5:51 AM 55.0 °F 53.1 °F 93% 30.14 in 10.0 mi NNW 6.9 mph - 0.01 in   Overcast
6:10 AM 55.4 °F 51.8 °F 88% 30.14 in 9.0 mi NNW 5.8 mph - N/A   Overcast
6:47 AM 55.4 °F 51.8 °F 88% 30.15 in 10.0 mi NNW 6.9 mph - N/A   Overcast
6:51 AM 55.9 °F 52.0 °F 87% 30.15 in 10.0 mi NNW 6.9 mph - N/A   Overcast
7:51 AM 55.9 °F 52.0 °F 87% 30.17 in 10.0 mi NNW 6.9 mph - N/A   Overcast
8:25 AM 57.2 °F 53.6 °F 88% 30.18 in 10.0 mi NNW 8.1 mph - N/A   Overcast
8:49 AM 57.2 °F 53.6 °F 88% 30.18 in 10.0 mi North 5.8 mph - N/A   Overcast
8:51 AM 57.0 °F 53.1 °F 87% 30.19 in 10.0 mi NNW 6.9 mph - N/A   Overcast
9:08 AM 57.2 °F 53.6 °F 88% 30.20 in 10.0 mi NNW 5.8 mph - N/A   Overcast
9:34 AM 57.2 °F 53.6 °F 88% 30.21 in 10.0 mi NNW 8.1 mph - N/A   Overcast
9:41 AM 57.2 °F 53.6 °F 88% 30.21 in 10.0 mi NNW 6.9 mph - N/A   Overcast
9:51 AM 57.0 °F 53.1 °F 87% 30.21 in 10.0 mi NNW 6.9 mph - N/A   Overcast
10:51 AM 60.1 °F 53.1 °F 78% 30.23 in 10.0 mi NW 4.6 mph - N/A   Overcast
11:16 AM 60.8 °F 51.8 °F 72% 30.23 in 10.0 mi NNW 6.9 mph - N/A   Overcast
11:51 AM 60.8 °F 53.6 °F 77% 30.24 in 10.0 mi NW 6.9 mph - N/A   Overcast
12:51 PM 62.1 °F 51.1 °F 67% 30.23 in 10.0 mi West 6.9 mph - N/A   Scattered Clouds
1:51 PM 62.1 °F 52.0 °F 70% 30.23 in 10.0 mi West 9.2 mph - N/A   Clear
2:51 PM 62.1 °F 51.1 °F 67% 30.21 in 10.0 mi WNW 11.5 mph - N/A   Clear
3:51 PM 63.0 °F 52.0 °F 67% 30.21 in 10.0 mi West 8.1 mph - N/A   Clear
4:51 PM 62.1 °F 53.1 °F 72% 30.20 in 10.0 mi WSW 9.2 mph - N/A   Clear
5:51 PM 62.1 °F 53.1 °F 72% 30.20 in 10.0 mi West 8.1 mph - N/A   Clear
6:51 PM 60.1 °F 54.0 °F 80% 30.21 in 10.0 mi WSW 5.8 mph - N/A   Clear
7:51 PM 57.0 °F 53.1 °F 87% 30.22 in 10.0 mi SW 4.6 mph - N/A   Clear
8:51 PM 55.0 °F 52.0 °F 89% 30.22 in 10.0 mi SSW 4.6 mph - N/A   Clear
9:51 PM 55.9 °F 53.1 °F 90% 30.22 in 10.0 mi SW 8.1 mph - N/A   Clear
10:51 PM 51.8 °F 51.8 °F 100% 30.22 in 8.0 mi South 5.8 mph - N/A   Clear
11:51 PM 50.0 °F 48.9 °F 96% 30.22 in 7.0 mi SSW 3.5 mph - N/A   Clear